Location: Branche des Alpilles
(43.6087°N, 4.6976°E)
Time: 04:13:34
(UTC+00:00)

Meteor 1-27 Rocket - Pass Details

Date: 30 November 2020
Orbit: 830 x 909 km, 81.3° (Epoch: 24 January)

Event Time Altitude Azimuth Distance (km) Brightness Sun altitude
Rises 18:19:23 0° 175° (S) 3,359 6.9 -23.5°
Reaches altitude 10° 18:21:49 10° 170° (S) 2,432 6.1 -24.0°
Enters shadow 18:25:27 39° 146° (SE) 1,229 4.3 -24.6°
